Temperature
9 9 9 9 9 9 10 10 9 8 8 8 8 9 8 8 8 7 7 7 6 6 5 5 5 4 4 3 3 2 2 2 1 1 1 0 -0 -0
9 9 9 9 9 9 9 9 9 9 8 8 8 8 8 8 7 7 7 6 6 6 5 5 4 4 4 3 2 2 2 1 1 0 0 -0 -1 -1
9 9 9 9 9 9 9 9 9 9 9 8 8 8 8 7 7 7 7 6 6 6 5 5 4 4 3 3 2 2 1 1 0 -0 -1 -1 -1 -1
9 8 8 9 8 8 8 9 9 9 8 8 8 8 7 7 7 7 6 6 6 5 5 4 4 4 3 3 2 1 1 1 0 -1 -1 -1 -2 -2
9 9 8 8 8 8 8 8 8 8 8 8 8 7 7 7 7 6 6 6 5 5 4 4 4 3 3 2 2 1 1 0 -0 -1 -1 -2 -2 -2
8 9 9 9 8 8 8 8 8 8 8 7 7 7 7 7 6 6 6 6 5 5 4 4 3 3 2 2 1 1 0 -0 -1 -1 -2 -2 -2 -3
8 8 8 9 8 8 8 8 8 8 7 7 7 7 6 6 6 6 6 5 5 4 4 3 3 2 2 1 1 0 -0 -1 -1 -2 -2 -2 -3 -3
8 8 8 8 8 8 8 8 8 7 7 7 7 6 6 6 6 6 5 5 4 4 4 3 3 2 2 1 0 -0 -1 -1 -1 -2 -2 -2 -3 -3
8 8 8 8 8 8 8 8 7 7 7 7 7 7 7 6 6 6 5 5 4 4 3 3 3 2 1 1 0 -0 -1 -1 -2 -2 -2 -3 -3 -3
7 8 8 8 8 8 7 7 7 7 7 7 7 7 7 6 6 6 5 5 4 3 3 2 2 2 1 0 -0 -1 -1 -2 -2 -2 -3 -3 -3 -3
7 7 7 7 7 7 7 7 7 7 6 6 6 6 6 6 5 5 5 4 4 3 2 2 2 1 1 0 -1 -1 -2 -2 -2 -2 -3 -3 -3 -3
7 7 7 7 7 7 7 7 7 6 6 6 6 6 5 5 5 5 4 4 3 3 2 2 1 1 -0 -0 -1 -1 -2 -2 -2 -3 -3 -3 -3 -3
6 6 6 7 7 7 7 7 6 6 6 5 5 5 5 5 4 4 4 3 3 2 2 1 1 0 -0 -1 -1 -2 -2 -2 -2 -3 -3 -3 -3 -4
6 6 6 6 6 6 6 6 6 6 5 5 5 5 5 4 4 3 3 3 2 2 2 1 1 0 -1 -1 -1 -2 -2 -2 -3 -3 -3 -3 -4 -4
5 5 5 5 6 6 6 5 5 5 5 5 5 4 4 4 3 3 3 2 2 1 1 1 0 -0 -1 -1 -1 -2 -2 -2 -3 -3 -3 -4 -4 -4
5 5 5 5 5 5 5 5 5 5 5 5 4 4 4 3 3 3 2 2 2 1 0 0 -0 -1 -1 -1 -1 -2 -2 -3 -3 -3 -3 -4 -4 -4
4 4 5 5 4 4 4 4 4 4 4 4 4 4 3 3 2 2 2 1 1 1 0 -0 -1 -1 -1 -1 -2 -2 -2 -3 -3 -3 -4 -4 -4 -4
4 4 4 4 4 4 4 4 4 4 4 3 3 3 3 3 2 2 1 1 1 0 0 -0 -1 -1 -1 -2 -2 -2 -3 -3 -3 -4 -4 -4 -4 -5
4 4 4 4 4 4 3 4 3 3 3 3 3 3 3 2 2 1 1 1 0 -0 -0 -1 -1 -1 -2 -2 -3 -3 -3 -3 -3 -4 -4 -4 -4 -5
3 3 3 3 3 3 3 3 3 3 3 3 3 2 2 2 2 1 1 0 -0 -0 -1 -1 -1 -2 -2 -2 -2 -3 -3 -3 -4 -4 -4 -4 -5 -5
3 3 3 3 3 3 3 3 3 3 2 2 2 2 2 2 1 1 1 0 -0 -1 -1 -1 -2 -2 -2 -3 -3 -3 -3 -4 -4 -4 -4 -4 -5 -5
2 2 3 3 3 3 3 3 3 2 2 2 2 2 2 1 1 1 0 0 -0 -1 -1 -2 -2 -3 -3 -3 -3 -3 -3 -4 -4 -5 -5 -5 -5 -6
2 2 2 2 3 3 3 2 2 2 2 2 2 2 1 1 1 1 0 -0 -1 -1 -1 -2 -3 -3 -3 -3 -3 -3 -4 -4 -4 -5 -5 -5 -5 -5
Wind_Speed
11 11 9 6 6 5 5 6 6 5 5 4 3 4 5 6 7 7 7 8 7 6 5 4 4 3 4 6 7 8 9 10 11 12 13 14 16 17
9 11 10 7 7 6 6 5 5 5 5 4 3 3 4 4 6 6 7 7 7 6 5 5 4 3 4 5 6 7 8 9 10 11 12 14 15 17
11 12 12 10 8 7 6 6 5 5 5 3 1 2 4 4 3 4 5 5 5 6 6 5 4 4 3 4 5 6 7 8 9 10 12 13 15 16
13 12 12 10 10 8 7 7 6 5 5 5 2 2 3 4 3 3 2 3 3 5 6 5 4 4 3 3 4 5 6 7 8 9 11 13 14 16
13 13 13 13 12 9 9 8 6 5 4 5 3 2 1 2 2 1 1 1 2 3 4 4 4 3 3 3 3 3 4 6 7 9 10 12 14 15
12 12 12 13 14 12 10 9 7 6 5 5 4 3 2 2 3 2 2 1 1 1 1 2 2 2 2 2 2 3 4 5 7 8 10 11 13 14
10 11 11 13 15 13 10 10 9 7 6 5 4 3 3 3 4 3 3 1 1 1 0 1 1 0 1 2 2 2 3 5 6 8 9 11 12 13
11 10 10 11 14 15 15 14 13 10 9 7 5 5 6 5 4 4 3 2 2 2 1 1 1 1 1 1 2 2 3 5 6 8 9 10 11 12
11 10 8 9 12 10 12 12 11 12 12 10 8 8 7 8 7 5 4 3 3 3 2 2 1 2 1 2 3 2 3 4 6 7 9 10 10 11
10 10 10 9 11 11 10 8 7 7 8 7 7 7 6 7 8 6 5 3 2 1 2 2 1 1 2 2 3 2 3 4 6 7 8 9 10 10
8 9 10 9 13 14 11 9 7 4 5 8 7 7 8 10 9 6 5 3 2 2 1 2 1 1 1 1 3 2 3 4 6 7 8 9 9 9
6 8 11 10 13 15 11 10 9 7 6 5 5 6 6 8 9 7 7 4 2 2 3 2 1 1 0 1 2 2 2 4 5 7 8 9 9 6
5 5 7 11 12 14 12 9 10 9 7 7 5 5 5 4 3 3 3 4 4 2 4 3 2 1 1 1 1 1 2 2 3 5 7 8 9 6
5 5 6 10 11 12 10 10 13 11 7 6 6 5 4 4 3 3 4 4 2 3 6 4 3 3 2 0 1 2 2 2 2 3 4 7 7 8
4 6 7 9 9 8 11 13 11 8 7 6 6 5 4 5 4 4 5 6 6 5 4 2 3 3 2 2 1 1 1 2 2 3 3 4 3 4
4 6 7 7 6 8 9 8 6 7 7 6 6 5 5 5 4 4 3 3 3 3 3 3 2 3 2 2 2 2 1 2 2 3 3 3 3 3
5 4 4 4 4 4 5 5 5 6 6 5 6 6 5 5 4 3 3 3 2 2 1 2 4 2 1 3 1 1 1 1 2 2 3 3 3 4
6 5 5 4 5 6 6 5 5 6 6 6 6 6 6 6 5 4 3 3 3 3 2 1 2 2 2 2 2 2 1 1 2 2 2 2 3 4
5 5 5 5 5 5 6 5 5 5 6 6 6 6 6 6 6 5 5 4 3 3 3 2 2 2 2 0 2 1 1 1 2 2 2 2 3 4
4 5 5 5 5 5 6 5 5 6 6 6 6 6 6 6 6 6 5 5 4 3 3 2 2 2 2 3 1 1 1 1 1 2 2 2 3 5
3 4 4 4 4 5 6 6 6 6 6 6 6 7 6 6 6 6 6 7 5 4 4 3 2 2 2 3 2 1 2 2 2 1 2 2 2 3
3 3 3 4 4 5 6 6 6 6 7 6 6 6 6 6 7 7 6 6 5 4 4 3 2 2 2 2 1 0 2 3 4 3 2 1 1 1
3 3 3 4 4 5 6 7 7 6 7 7 6 6 6 6 6 6 6 6 5 6 5 4 2 2 2 2 2 1 1 2 3 3 3 6 5 5
Wind_Direction
204 202 199 197 189 184 174 170 174 203 229 215 202 199 193 193 201 199 207 216 219 223 227 233 255 280 298 310 319 326 331 333 335 337 338 339 340 341
201 199 198 196 189 184 179 177 179 187 213 209 196 178 175 182 193 189 201 209 214 219 222 228 239 259 282 302 315 322 327 330 334 338 339 341 341 341
199 198 197 189 189 185 179 176 181 179 200 210 178 166 173 179 175 183 194 197 206 215 220 222 231 243 267 291 307 317 325 331 335 338 340 341 341 340
200 196 197 187 188 186 183 182 186 183 184 193 191 180 185 183 171 172 171 187 199 212 219 224 234 245 265 286 304 318 327 332 335 336 339 342 342 341
197 195 194 185 190 189 184 185 186 179 174 177 184 178 164 155 146 154 160 157 189 209 220 228 241 251 269 288 308 324 330 333 334 336 340 343 342 341
194 193 192 188 188 184 183 183 177 170 166 168 172 163 161 152 149 172 193 196 208 162 217 240 245 244 259 282 305 325 333 334 334 337 341 344 343 342
192 192 192 189 185 183 180 178 174 175 173 177 179 169 172 169 188 181 191 183 192 163 241 244 231 228 258 278 299 313 331 335 336 337 339 342 342 341
189 188 187 185 182 180 176 175 176 180 185 187 192 192 200 193 177 173 164 157 219 199 181 230 181 226 252 245 279 306 325 334 335 336 338 340 341 341
185 183 182 183 177 178 174 173 178 181 182 184 189 199 196 190 175 175 180 182 198 173 156 204 203 239 242 237 257 285 319 333 335 336 338 340 342 341
182 181 179 179 178 170 167 171 179 187 187 185 190 194 187 176 176 173 167 133 96 140 138 178 211 256 287 272 245 276 320 333 336 338 339 340 342 343
177 178 177 180 175 165 167 169 170 179 165 160 157 153 151 153 148 134 138 133 150 184 163 146 169 297 285 261 264 273 319 335 340 340 340 340 342 345
176 179 179 178 175 168 172 173 176 176 154 142 135 129 132 144 150 158 164 159 146 181 186 150 143 89 324 269 279 291 314 322 336 339 338 337 341 351
177 184 185 173 174 174 175 180 177 162 155 146 136 129 125 130 135 127 144 158 161 180 173 146 141 132 147 264 285 288 313 318 323 330 333 334 339 348
177 181 178 173 173 173 174 168 156 148 145 143 144 149 151 149 135 114 99 90 99 161 169 157 153 166 154 196 261 289 308 302 323 330 329 330 339 343
167 162 164 167 169 171 165 158 153 151 150 153 161 163 155 148 131 112 91 83 72 76 118 140 155 165 163 183 214 249 288 294 322 334 330 329 327 336
143 144 142 151 158 156 155 155 156 160 158 160 157 145 137 139 139 135 129 115 93 64 47 62 126 159 165 190 196 228 251 265 304 323 324 319 321 329
145 136 137 147 151 152 150 149 152 152 147 142 145 146 146 145 141 135 133 127 116 128 83 37 39 62 148 168 176 209 251 302 292 320 332 325 312 319
144 153 162 167 173 171 165 160 161 160 155 151 153 155 155 154 145 141 139 138 136 138 135 129 88 57 43 20 206 196 231 286 311 324 333 324 316 322
147 163 173 177 178 175 170 167 168 161 155 154 155 154 152 152 149 150 149 139 132 137 147 151 142 118 109 313 312 257 192 301 322 326 322 308 290 305
163 172 177 179 178 176 171 165 158 154 155 155 154 154 155 157 157 159 160 155 147 142 145 156 170 167 168 180 204 279 285 274 305 315 321 319 297 300
176 178 177 176 175 172 167 163 160 160 160 156 156 159 161 160 160 160 160 154 143 147 160 177 192 107 99 96 81 354 328 336 318 277 306 331 333 341
184 184 181 172 170 171 165 162 160 159 159 155 156 160 164 164 162 158 157 157 155 152 149 143 132 107 84 93 91 56 349 349 351 347 328 307 304 321
191 183 180 173 170 170 166 164 161 162 162 159 159 160 161 160 156 153 150 147 144 140 135 131 114 75 65 85 97 70 17 3 2 6 355 354 348 330
Height
1437 1440 1443 1447 1451 1454 1457 1460 1462 1464 1465 1467 1470 1472 1474 1475 1477 1478 1478 1478 1478 1477 1476 1475 1473 1472 1470 1468 1465 1463 1461 1458 1455 1452 1449 1446 1443 1439
1430 1434 1437 1441 1445 1448 1451 1454 1457 1459 1460 1462 1465 1467 1469 1470 1472 1473 1474 1474 1473 1473 1472 1470 1469 1467 1465 1463 1461 1459 1457 1454 1452 1449 1446 1443 1439 1436
1424 1427 1430 1435 1439 1442 1445 1448 1451 1454 1455 1457 1460 1463 1464 1466 1467 1468 1469 1469 1469 1468 1467 1466 1464 1463 1461 1459 1457 1455 1453 1450 1448 1445 1442 1440 1436 1433
1416 1420 1424 1427 1432 1436 1439 1442 1445 1448 1450 1452 1455 1458 1459 1461 1462 1463 1464 1464 1464 1463 1462 1461 1460 1458 1456 1454 1452 1450 1449 1446 1444 1442 1439 1436 1433 1430
1410 1413 1417 1420 1425 1430 1433 1437 1440 1443 1445 1447 1449 1452 1454 1456 1457 1458 1459 1459 1459 1458 1458 1457 1456 1454 1452 1451 1448 1447 1445 1443 1441 1438 1436 1433 1430 1427
1403 1407 1411 1414 1419 1423 1427 1431 1434 1437 1440 1443 1445 1446 1448 1450 1452 1452 1453 1454 1454 1453 1453 1453 1451 1450 1448 1447 1445 1443 1441 1439 1437 1435 1433 1430 1427 1424
1396 1400 1404 1408 1413 1417 1420 1424 1428 1431 1434 1437 1439 1441 1442 1444 1445 1447 1448 1449 1448 1448 1448 1448 1447 1446 1444 1443 1441 1440 1438 1436 1434 1432 1430 1427 1424 1422
1389 1394 1398 1402 1406 1411 1415 1419 1423 1426 1429 1431 1433 1435 1437 1439 1441 1442 1443 1443 1443 1444 1443 1443 1442 1441 1440 1439 1438 1437 1435 1433 1431 1429 1427 1424 1422 1419
1383 1388 1392 1396 1401 1405 1409 1413 1417 1421 1424 1426 1428 1430 1432 1434 1436 1437 1438 1438 1438 1439 1439 1438 1438 1437 1437 1436 1435 1434 1432 1431 1428 1426 1424 1422 1419 1416
1378 1382 1386 1391 1396 1400 1404 1408 1411 1415 1418 1421 1423 1425 1428 1431 1432 1433 1434 1434 1434 1435 1435 1434 1434 1434 1433 1433 1432 1431 1429 1428 1426 1424 1421 1419 1416 1414
1374 1378 1382 1386 1391 1395 1399 1402 1406 1409 1413 1416 1419 1421 1423 1426 1427 1428 1428 1429 1429 1430 1430 1431 1430 1429 1429 1429 1429 1428 1427 1425 1423 1421 1419 1416 1414 1412
1370 1374 1378 1382 1386 1390 1393 1397 1400 1403 1407 1410 1413 1416 1418 1420 1422 1423 1424 1424 1424 1425 1426 1427 1426 1426 1425 1426 1426 1425 1424 1422 1421 1419 1416 1414 1412 1409
1366 1369 1373 1377 1381 1386 1389 1392 1395 1399 1403 1406 1408 1411 1413 1415 1417 1418 1420 1421 1421 1422 1423 1423 1423 1423 1423 1422 1422 1422 1421 1420 1418 1416 1414 1412 1410 1407
1363 1366 1369 1373 1377 1381 1385 1388 1392 1396 1398 1401 1403 1406 1408 1411 1413 1414 1416 1417 1418 1419 1419 1420 1420 1420 1420 1419 1419 1418 1418 1417 1415 1414 1412 1410 1408 1406
1360 1363 1367 1370 1374 1377 1381 1384 1388 1390 1393 1396 1399 1401 1404 1407 1409 1410 1412 1413 1414 1415 1416 1416 1417 1417 1417 1417 1416 1416 1415 1414 1413 1412 1410 1408 1406 1404
1358 1361 1364 1367 1370 1373 1377 1380 1383 1385 1388 1392 1395 1398 1400 1402 1404 1406 1408 1409 1411 1412 1413 1414 1414 1415 1415 1415 1415 1414 1413 1412 1411 1410 1409 1407 1405 1403
1354 1357 1361 1363 1366 1369 1372 1375 1378 1381 1384 1387 1391 1394 1396 1398 1401 1403 1405 1406 1407 1408 1410 1411 1412 1413 1413 1413 1412 1412 1411 1411 1409 1408 1407 1405 1404 1402
1352 1354 1357 1360 1362 1365 1368 1371 1374 1377 1380 1384 1387 1390 1392 1394 1397 1400 1401 1403 1404 1406 1407 1408 1409 1410 1411 1410 1411 1410 1410 1409 1408 1407 1405 1404 1402 1401
1349 1351 1354 1357 1359 1362 1365 1367 1370 1373 1377 1380 1383 1386 1389 1391 1393 1396 1398 1400 1402 1403 1405 1406 1406 1407 1407 1407 1408 1409 1408 1407 1406 1405 1404 1403 1401 1400
1346 1349 1351 1354 1357 1359 1361 1364 1367 1370 1374 1377 1380 1383 1386 1388 1390 1392 1394 1397 1399 1400 1402 1403 1405 1405 1405 1406 1406 1407 1407 1406 1405 1404 1403 1402 1401 1400
1343 1346 1348 1351 1353 1356 1359 1361 1364 1367 1370 1374 1377 1380 1382 1385 1387 1389 1392 1394 1396 1398 1400 1401 1403 1404 1405 1405 1405 1405 1406 1405 1405 1404 1402 1401 1399 1398
1341 1343 1345 1348 1350 1353 1356 1358 1361 1364 1367 1370 1374 1377 1379 1382 1384 1387 1389 1391 1394 1396 1398 1400 1401 1402 1403 1404 1404 1404 1405 1405 1404 1404 1403 1401 1400 1398
1338 1340 1342 1345 1347 1350 1353 1356 1358 1361 1364 1367 1371 1374 1377 1380 1382 1385 1387 1389 1392 1394 1396 1397 1399 1401 1402 1402 1403 1403 1404 1404 1404 1403 1403 1402 1401 1400